Bismarck, ND

4:07 PM CDT on July 27, 2017 (GMT -0500)
Bismarck Municipal

Weather History for KBIS - December, 2012

Change the Weather History Date:

Monday, December 3, 2012

  Actual Average Record
Temperature  
Mean Temperature 39 °F 20 °F  
Max Temperature 51 °F 30 °F 60 °F (1916)
Min Temperature 27 °F 10 °F -20 °F (1897)
Degree Days  
Heating Degree Days 26 45  
Month to date heating degree days 89 133  
Since 1 July heating degree days 2086 2119  
Cooling Degree Days 0 0  
Month to date cooling degree days 0 0  
Year to date cooling degree days 599 520  
Moisture  
Dew Point 28 °F    
Average Humidity 56    
Maximum Humidity 76    
Minimum Humidity 36    
Precipitation  
Precipitation 0.03 in 0.02 in 0.45 in (2010)
Month to date precipitation 0.03 0.05  
Year to date precipitation 14.30 17.41  
Snow  
Snow 0.00 in 0.30 in 5.60 in (2010)
Month to date snowfall 0.0 0.9  
Since 1 July snowfall 10.5 12.1  
Snow Depth T in    
Sea Level Pressure  
Sea Level Pressure 29.74 in    
Wind  
Wind Speed 15 mph (WNW)    
Max Wind Speed 36 mph    
Max Gust Speed 46 mph    
Visibility 10 miles    
Events Rain    
T = Trace of Precipitation, MM = Missing Value Source: NWS Daily Summary

Daily Weather History Graph

Daily Weather History Graph

Search for Another Location

Airport or City:

Trip Planner

Search our weather history database for the weather conditions in past years. The results will help you decide how hot, cold, wet, or windy it might be!

Date:

Astronomy

Dec. 03, 2012 Rise Set
Actual Time 8:10 AM CST 4:55 PM CST
Civil Twilight 7:35 AM CST 5:30 PM CST
Nautical Twilight 6:57 AM CST 6:08 PM CST
Astronomical Twilight 6:20 AM CST 6:45 PM CST
Moon 9:54 PM CST (12/3) 11:25 AM CST (12/3)
Length of Visible Light 9h 54m
Length of Day
8h 45m
Waning Gibbous, 78% of the Moon is Illuminated
Dec 3
Waning Gibbous
Dec 6
Last Quarter
Dec 13
New
Dec 19
First Quarter
Dec 28
Full

Hourly Weather History & Observations

Time (CST) Temp. Windchill Dew Point Humidity Pressure Visibility Wind Dir Wind Speed Gust Speed Precip Events Conditions
12:52 AM 39.9 °F 37.8 °F 32.0 °F 73% 29.35 in 10.0 mi ESE 3.5 mph - N/A   Clear
1:52 AM 39.9 °F - 32.0 °F 73% 29.36 in 10.0 mi Calm Calm - N/A   Scattered Clouds
2:52 AM 39.0 °F 34.0 °F 32.0 °F 76% 29.42 in 10.0 mi West 6.9 mph - N/A   Scattered Clouds
3:52 AM 48.9 °F - 37.0 °F 64% 29.45 in 10.0 mi NW 26.5 mph 41.4 mph N/A   Mostly Cloudy
4:52 AM 46.9 °F - 41.0 °F 80% 29.52 in 10.0 mi WNW 19.6 mph 33.4 mph 0.01 in Rain Light Rain
5:52 AM 46.0 °F 39.6 °F 37.0 °F 71% 29.56 in 10.0 mi WNW 15.0 mph 26.5 mph 0.02 in   Overcast
6:52 AM 45.0 °F 37.1 °F 30.9 °F 58% 29.61 in 10.0 mi WNW 19.6 mph 28.8 mph N/A   Overcast
7:52 AM 44.1 °F 37.1 °F 30.0 °F 58% 29.65 in 10.0 mi WNW 15.0 mph 20.7 mph N/A   Partly Cloudy
8:52 AM 42.1 °F 34.2 °F 28.9 °F 60% 29.68 in 10.0 mi West 16.1 mph - N/A   Clear
9:52 AM 44.1 °F 36.5 °F 28.9 °F 55% 29.70 in 10.0 mi West 17.3 mph 26.5 mph N/A   Clear
10:52 AM 46.0 °F 37.6 °F 27.0 °F 47% 29.73 in 10.0 mi West 24.2 mph 38.0 mph N/A   Clear
11:52 AM 48.0 °F - 27.0 °F 44% 29.74 in 10.0 mi WNW 27.6 mph 36.8 mph N/A   Clear
12:52 PM 50.0 °F - 26.1 °F 39% 29.75 in 10.0 mi WNW 25.3 mph 34.5 mph N/A   Clear
1:52 PM 50.0 °F - 25.0 °F 38% 29.77 in 10.0 mi WNW 26.5 mph 38.0 mph N/A   Clear
2:52 PM 50.0 °F - 25.0 °F 38% 29.78 in 10.0 mi WNW 21.9 mph 34.5 mph N/A   Partly Cloudy
3:52 PM 50.0 °F - 27.0 °F 41% 29.80 in 10.0 mi NW 13.8 mph 27.6 mph N/A   Partly Cloudy
4:52 PM 45.0 °F 38.5 °F 27.0 °F 49% 29.83 in 10.0 mi WNW 13.8 mph 25.3 mph N/A   Clear
5:52 PM 42.1 °F 35.7 °F 27.0 °F 55% 29.87 in 10.0 mi NW 11.5 mph - N/A   Clear
6:52 PM 37.0 °F 29.3 °F 26.1 °F 65% 29.91 in 10.0 mi NW 11.5 mph - N/A   Clear
7:52 PM 34.0 °F 28.0 °F 24.1 °F 67% 29.94 in 10.0 mi WNW 6.9 mph - N/A   Clear
8:52 PM 34.0 °F 26.0 °F 23.0 °F 64% 29.97 in 10.0 mi WNW 10.4 mph 19.6 mph N/A   Clear
9:52 PM 32.0 °F 23.6 °F 21.9 °F 66% 30.00 in 10.0 mi WNW 10.4 mph - N/A   Clear
10:52 PM 30.0 °F 24.1 °F 21.9 °F 72% 30.03 in 10.0 mi NW 5.8 mph - N/A   Clear
11:52 PM 27.0 °F 16.7 °F 19.0 °F 72% 30.05 in 10.0 mi NNW 11.5 mph - N/A   Clear